Volver al catálogo

COSMOS 2251 DEB

ActivoLEO
NORAD 34387·DEBRIS·🇷🇺 Russia

Lanzado Jun 16, 1993 desde Plesetsk Cosmodrome

Loading…

Próximos Pases (próximas 24 horas)

TLE

ActualizadoSource: Space-Track

Época: Sep 14, 2026, 10:12 UTC

1 34387U 93036QC  26257.42567894  .00000696  00000-0  20804-3 0  9991
2 34387  74.0393  59.2060 0037392  89.1071 299.6355 14.44360394921611

Sigue COSMOS 2251 DEB en tiempo real con AllMySat

Download on the App Store